Simultaneous Nadir Overpasses (SNOs) Predictions

Prediction of SNOs between LANDSAT-8 and METOP-B Satellite Orbit:

Table of predicted SNOs for the next 14.0 days since TLE Epoch: 6/2/2017
Index Date (LANDSAT-8) Time (LANDSAT-8) Lat,Lon (LANDSAT-8) SZA (LANDSAT-8 ) Date (METOP-B) Time (METOP-B) Lat,Lon (METOP-B) SZA (METOP-B ) Distance(km) Time Diff (sec)
1 06/05/2017 02:09:38 81.18,-171.60 60.92 06/05/2017 02:09:00 81.18,-171.41 60.92 3.17 38
2 06/05/2017 02:59:04 -81.19, -3.66 119.05 06/05/2017 02:59:40 -81.19, -3.74 119.04 1.53 36
3 06/07/2017 21:43:54 81.16,-105.35 60.59 06/07/2017 21:43:21 81.17,-105.38 60.58 0.55 33
4 06/07/2017 22:33:20 -81.18, 62.62 119.36 06/07/2017 22:34:00 -81.19, 62.68 119.34 1.18 40
5 06/10/2017 17:18:10 81.17, -38.76 60.38 06/10/2017 17:17:41 81.18, -38.60 60.38 2.76 29
6 06/10/2017 18:07:36 -81.20, 129.23 119.58 06/10/2017 18:08:21 -81.19, 129.08 119.58 2.60 45
7 06/13/2017 12:52:26 81.18, 27.80 60.21 06/13/2017 12:52:02 81.18, 27.79 60.19 0.51 24
8 06/13/2017 13:41:52 -81.20,-164.19 119.74 06/13/2017 13:42:41 -81.20,-164.15 119.72 0.78 49
9 06/16/2017 08:26:42 81.16, 93.96 60.03 06/16/2017 08:26:23 81.16, 93.78 60.00 3.21 19




NCC Satellite Simultaneous Nadir Overpasses (SNOs) Prediction Service
